Theta_e
330 329 316 307 299 298 295 302 311 312 315 322 326 324 319 328 322 315 338 342 349 354 355 358 360 359 360 360 359 362 362 362 361 359 359 357 357 356 355 355 355 350 350 351 351 350 350 349 348
318 314 306 301 297 295 298 302 308 309 315 324 330 333 331 328 336 334 334 349 352 353 353 355 361 360 359 360 360 360 361 361 361 359 358 357 357 356 356 355 355 350 349 349 348 348 347 346 346
318 308 300 297 292 294 295 300 307 306 326 325 326 331 333 333 337 335 342 351 353 352 352 355 361 360 359 359 359 359 360 361 360 359 358 357 357 357 358 357 356 353 351 349 348 347 345 344 344
306 302 298 294 291 295 298 301 302 306 322 321 328 326 334 337 338 340 350 354 352 351 350 358 361 361 360 359 359 358 358 359 360 358 358 357 357 357 358 357 357 355 353 351 350 348 346 345 344
300 297 292 290 291 295 299 301 299 303 316 322 330 327 330 339 345 349 352 353 350 351 351 356 360 361 359 358 359 358 358 358 359 359 358 357 358 357 358 358 356 355 355 354 353 352 349 348 348
298 295 290 288 290 296 298 299 298 308 322 328 330 330 329 341 343 347 351 349 351 350 353 354 359 360 359 359 359 359 358 358 358 359 359 359 359 358 358 358 357 356 355 354 353 352 352 351 351
295 292 289 288 291 294 299 300 299 314 317 323 333 327 328 336 342 346 349 350 351 353 352 352 352 356 359 360 359 359 358 358 357 358 359 359 359 359 359 358 359 359 358 357 355 354 354 354 353
295 292 287 288 290 292 298 299 298 316 318 330 328 323 321 331 343 348 349 349 349 352 350 350 351 351 352 355 359 359 358 358 357 356 357 358 359 359 358 355 356 357 358 358 358 357 356 355 355
296 290 287 289 290 293 296 298 302 306 324 323 326 325 330 339 345 344 343 345 346 348 350 350 350 348 349 351 355 358 357 356 356 354 356 355 353 355 356 356 356 359 358 358 358 358 357 356 355
294 288 291 294 294 294 296 296 299 301 313 320 329 331 336 342 340 338 337 338 341 343 347 349 350 349 349 352 351 352 351 351 351 350 349 348 348 349 353 355 356 357 359 359 358 358 357 356 353
291 291 294 297 298 297 296 298 300 299 303 316 322 327 333 337 337 336 336 337 339 343 345 347 348 350 348 347 348 349 347 348 347 347 345 344 345 346 350 348 350 353 354 354 354 354 354 354 352
295 295 296 298 298 297 297 298 298 299 302 314 327 329 333 334 334 334 334 336 336 340 343 346 348 349 348 345 346 347 346 346 345 344 343 341 340 340 342 345 345 345 348 348 348 347 348 349 350
291 295 297 300 300 298 298 298 297 299 309 328 332 331 331 333 333 336 338 337 337 337 341 346 348 347 347 344 346 344 345 346 345 343 342 341 338 337 338 340 342 343 345 346 346 344 342 342 343
297 297 300 300 299 297 296 299 297 301 322 327 331 330 331 332 333 334 335 335 335 337 337 342 346 347 346 344 344 344 344 344 342 341 341 341 338 336 335 336 338 341 344 344 345 344 342 339 339
299 296 298 298 298 298 298 300 298 303 322 323 328 330 332 333 334 333 336 335 336 337 336 337 340 344 344 343 343 341 341 341 339 339 339 340 338 335 334 334 337 339 341 341 341 340 339 338 339
295 294 291 296 300 300 300 294 300 304 313 312 321 329 325 332 334 335 336 336 336 336 334 334 339 340 340 340 339 340 338 337 338 337 337 339 339 338 334 334 336 340 341 340 339 338 337 337 336
292 289 290 295 298 299 298 295 301 305 303 303 304 321 325 325 333 335 335 336 336 334 332 332 333 334 335 335 337 336 334 335 336 336 336 338 339 340 339 338 340 342 342 341 338 339 337 336 336
287 288 290 291 296 298 294 296 299 307 308 307 309 305 318 321 327 333 336 335 334 331 329 331 333 331 332 332 334 335 333 333 334 336 336 339 339 341 340 340 341 343 343 341 340 338 337 336 338
294 292 291 295 299 296 294 294 302 306 308 308 308 312 316 314 325 329 331 333 330 331 331 332 333 335 331 332 334 335 333 336 336 336 339 340 341 342 341 341 341 342 339 340 340 338 337 336 338
294 291 292 296 298 296 295 294 303 306 307 308 309 314 317 318 322 326 328 330 331 332 332 332 334 336 335 334 336 337 338 340 341 342 343 344 344 343 342 341 339 341 335 336 335 337 336 336 336
293 292 293 294 297 296 294 292 297 304 308 309 310 311 319 322 323 324 324 325 327 327 328 330 331 333 334 339 343 344 344 342 339 340 341 340 343 346 345 343 341 339 332 330 331 332 333 331 336
291 297 297 295 292 289 294 286 290 300 303 305 307 310 311 314 317 321 322 322 324 325 326 328 328 329 332 335 335 335 333 333 335 336 337 338 340 342 347 343 337 334 332 330 330 332 331 334 333
295 299 296 295 291 289 290 287 288 300 300 303 306 310 311 313 313 313 316 319 322 324 324 325 326 326 328 330 332 331 330 332 332 331 331 332 334 336 339 337 335 334 332 333 334 332 330 332 334
301 296 294 291 288 284 288 288 287 295 299 303 306 308 310 311 311 311 313 314 313 318 318 320 321 322 324 325 326 326 327 328 327 327 328 329 330 331 333 336 334 333 333 333 332 330 329 329 334
296 291 285 284 283 284 292 289 290 301 303 304 304 307 309 309 309 309 311 311 311 311 312 314 315 316 321 323 323 324 324 324 323 322 323 324 326 327 329 331 331 331 331 332 331 328 328 328 333
294 293 287 282 282 285 291 287 291 303 305 306 306 306 307 307 309 308 310 310 311 312 312 312 313 313 315 317 317 319 320 320 320 319 321 321 322 325 327 328 328 328 329 329 329 328 327 329 333
294 290 292 288 287 285 287 292 299 304 304 306 305 305 305 306 307 309 311 311 310 309 310 311 311 311 312 313 314 314 314 315 314 314 317 318 321 323 322 323 324 325 326 328 327 326 326 327 329
296 298 290 288 281 278 284 287 290 299 300 303 304 303 305 306 308 310 311 311 311 312 312 312 312 310 311 311 312 313 313 312 311 312 312 314 316 318 320 321 321 322 322 325 326 324 325 324 326
294 292 290 290 287 283 281 285 295 297 300 302 304 305 305 306 307 309 310 312 312 311 311 310 311 311 310 310 309 310 310 309 310 309 310 311 312 315 316 318 319 321 321 321 324 324 328 325 324
291 291 291 285 283 284 283 284 296 298 300 302 303 305 306 306 307 308 309 310 311 309 309 307 308 307 309 309 309 308 308 309 309 309 309 310 309 311 312 313 315 318 321 320 320 322 323 324 324
Wind_Speed
4 3 3 3 5 5 3 5 2 4 3 3 7 4 7 0 5 6 1 3 13 13 10 12 14 15 16 15 14 14 14 13 15 15 15 15 14 15 14 13 13 15 15 14 14 14 14 13 12
3 4 4 2 6 5 5 5 6 5 4 7 4 3 3 3 4 4 7 6 13 14 10 10 15 13 16 16 14 14 15 14 14 14 15 15 14 14 13 13 13 15 14 13 12 12 11 10 9
3 3 4 6 4 3 2 4 8 9 4 4 3 4 1 2 2 9 6 12 12 12 10 11 15 15 16 16 15 14 14 14 13 14 14 15 14 12 11 11 11 12 13 13 11 10 9 8 7
3 5 5 6 2 4 4 5 6 6 2 5 3 2 3 5 4 7 13 15 12 10 7 13 15 14 15 16 14 12 13 13 13 12 12 13 12 11 10 10 9 10 11 11 10 8 7 6 5
5 3 5 4 3 4 6 6 5 4 1 3 4 1 2 5 7 12 14 14 15 11 6 10 14 14 14 16 15 14 12 11 11 11 12 11 11 10 8 8 8 8 8 8 8 7 5 4 4
5 4 6 1 4 6 7 5 5 1 4 2 4 4 2 2 4 8 9 9 10 14 10 9 14 13 13 14 13 12 12 11 10 10 10 10 9 9 9 7 6 6 5 5 5 4 3 3 2
7 5 4 3 2 5 6 8 5 2 3 3 3 4 3 1 7 7 7 7 7 9 9 8 11 14 15 13 13 12 10 9 9 9 9 9 9 8 8 9 9 8 6 5 4 3 1 0 1
6 6 2 2 1 4 4 8 4 2 1 4 3 3 4 4 9 9 8 6 7 9 8 8 7 7 7 6 12 11 11 11 10 10 10 9 9 8 7 6 5 6 8 6 5 3 3 3 3
3 6 1 3 2 3 4 9 6 4 2 1 3 5 3 16 14 11 10 9 8 8 10 7 9 7 9 7 9 11 13 11 10 9 10 7 4 4 6 5 6 5 4 4 4 5 4 5 6
6 4 10 4 2 3 4 3 4 5 1 3 2 5 14 16 14 14 13 14 14 14 13 7 8 8 8 7 8 7 6 5 4 4 5 4 4 4 5 6 7 7 6 5 4 5 5 6 3
2 5 5 4 7 5 4 5 4 2 3 7 6 12 13 14 13 13 13 12 15 12 10 12 13 11 11 9 6 4 3 3 3 5 5 4 3 3 2 2 2 1 5 2 3 3 3 5 4
1 3 4 5 3 3 4 2 2 6 8 3 5 16 14 14 14 14 13 10 8 9 13 12 10 7 6 2 4 5 5 4 4 5 6 4 3 3 3 3 3 3 2 3 3 3 4 6 6
2 3 4 8 8 6 4 5 3 8 10 2 10 13 13 13 13 10 6 6 6 10 11 10 14 11 10 4 2 3 5 6 6 5 5 4 4 4 3 3 3 2 2 3 4 5 5 6 6
5 3 6 6 5 2 1 4 1 4 3 4 10 13 13 15 16 7 8 11 10 12 11 11 13 11 10 10 7 6 5 5 4 5 6 7 5 4 4 3 3 3 4 4 5 5 4 5 5
2 4 6 2 2 2 2 7 2 5 3 7 8 8 13 13 10 17 16 15 14 15 7 12 11 10 11 12 9 6 6 5 5 6 6 7 6 5 4 4 4 5 4 5 2 4 3 5 3
4 5 4 4 6 2 4 6 3 6 2 8 8 5 5 9 16 13 10 12 12 6 8 7 10 12 11 10 8 7 6 5 6 6 6 8 8 7 6 5 6 2 2 2 3 2 3 4 3
8 1 3 8 3 1 4 6 6 12 10 8 10 6 8 7 10 12 9 12 10 7 7 9 8 10 12 10 8 7 6 6 5 4 5 7 8 7 6 5 3 3 3 2 1 1 2 2 3
2 3 4 5 3 7 3 6 7 8 8 9 12 9 6 7 14 9 7 8 9 12 9 9 6 7 5 3 3 1 3 3 4 5 5 7 6 8 7 5 5 5 1 2 2 3 3 4 3
2 2 3 6 5 1 3 1 8 11 14 17 13 9 9 6 7 6 6 8 8 8 7 3 5 5 1 1 2 2 3 1 2 3 4 5 5 8 8 3 1 4 4 3 4 2 2 3 3
3 2 7 8 3 4 5 3 5 9 7 10 11 10 8 7 10 10 10 10 10 10 9 9 7 4 1 1 0 1 1 2 2 3 2 0 4 5 5 5 5 8 7 6 5 6 5 5 7
4 4 5 8 7 2 1 3 4 2 5 12 13 10 12 11 11 11 13 12 12 14 14 12 12 12 10 6 2 2 2 2 3 3 3 3 4 3 7 8 8 10 9 8 8 8 8 5 2
4 8 7 5 4 3 2 5 2 5 6 10 13 14 14 14 11 13 14 15 14 12 13 14 20 16 15 13 8 9 5 4 3 5 4 4 2 2 1 4 6 9 8 10 11 7 5 4 4
10 2 4 3 4 3 1 5 5 4 5 7 10 11 11 11 11 12 13 12 12 14 14 14 16 19 19 16 8 6 10 8 4 7 5 5 5 4 3 6 10 7 7 5 4 7 5 3 3
2 2 6 5 4 1 3 5 5 3 3 4 5 7 9 9 9 10 10 11 12 11 12 14 18 18 20 18 18 22 13 9 6 5 5 5 4 6 8 7 5 3 4 5 6 6 6 3 1
5 6 3 5 3 6 3 3 6 4 2 2 0 3 5 5 7 8 11 12 13 14 14 15 15 12 13 10 10 8 7 6 6 5 5 7 5 4 7 5 4 3 6 6 6 5 4 1 2
6 9 7 6 4 5 2 5 4 4 5 4 3 0 1 3 4 6 6 7 8 8 9 12 14 13 7 6 9 4 4 4 3 3 2 3 3 3 4 4 4 4 4 4 4 3 3 3 3
5 3 3 8 4 3 4 3 4 4 6 6 6 4 4 5 6 7 4 5 7 8 7 7 9 9 5 7 4 6 6 4 4 5 4 3 4 3 4 3 4 5 5 6 6 5 5 3 4
4 5 4 3 3 4 4 3 6 11 12 9 9 9 7 6 5 4 4 5 4 4 4 6 7 9 7 6 2 3 3 4 1 3 5 5 6 6 7 6 5 5 5 5 5 4 5 5 4
3 2 6 5 4 6 3 7 7 12 13 15 14 12 11 8 5 4 4 3 3 4 5 5 5 6 4 2 5 5 5 6 5 5 4 5 6 5 5 6 6 5 5 6 5 5 5 4 4
1 6 7 7 5 1 2 9 3 6 9 11 10 10 10 7 6 6 6 4 5 5 5 7 7 6 4 4 4 5 6 7 6 5 4 4 6 5 7 7 6 7 4 4 5 6 6 6 6
Wind_Direction
128 127 105 52 49 61 330 307 255 299 304 237 133 167 208 238 171 207 9 150 130 134 143 147 152 148 142 136 130 125 122 121 123 125 124 122 118 116 112 109 106 107 109 110 110 109 107 108 110
134 112 49 86 80 60 296 284 295 260 229 137 120 103 70 300 31 78 115 144 141 136 142 145 151 151 146 143 138 132 130 129 130 131 131 130 126 124 121 116 113 113 114 113 111 110 110 111 111
126 51 78 90 89 144 223 236 271 291 133 117 97 59 100 279 61 157 134 139 137 134 141 153 155 154 152 150 146 141 138 139 141 142 139 135 132 131 126 121 118 117 118 119 118 114 115 113 112
97 15 32 72 174 248 233 278 258 286 290 80 107 17 49 325 153 162 144 138 127 123 128 155 156 157 155 154 152 149 146 148 147 146 139 138 137 138 135 131 127 123 122 123 123 124 123 113 101
38 60 61 82 275 260 260 265 290 245 23 118 109 155 38 30 77 125 140 141 137 136 135 152 155 161 161 162 159 159 155 154 151 150 148 146 145 144 142 143 141 135 133 129 129 125 117 107 96
42 97 60 29 286 283 286 258 306 274 65 46 98 117 44 66 65 135 136 135 141 147 150 153 160 164 164 167 166 162 162 158 156 156 155 153 156 155 157 160 157 155 152 147 143 133 131 107 70
108 77 161 191 277 313 282 336 344 83 64 39 110 81 320 290 109 122 122 115 125 144 150 161 162 169 173 171 168 164 163 157 160 160 158 160 164 167 187 186 177 183 185 191 188 187 190 268 50
104 90 103 251 143 275 309 334 315 72 94 137 111 143 229 166 113 94 95 111 136 156 163 172 167 159 148 158 171 170 169 169 171 166 166 169 173 176 194 201 214 219 193 202 216 227 265 293 301
118 64 157 247 216 243 332 15 308 288 67 25 121 169 166 131 120 117 133 164 179 186 192 170 161 159 153 161 178 179 181 181 180 178 175 169 167 189 200 210 223 259 267 270 258 224 258 283 297
87 102 214 226 256 285 263 178 291 355 11 278 41 53 126 136 147 161 177 181 189 194 190 178 185 174 166 178 177 171 177 164 168 168 171 172 177 182 205 218 230 243 258 266 268 259 262 280 283
168 173 206 270 239 254 268 311 223 170 262 235 198 153 150 156 169 184 198 191 194 193 177 188 190 183 181 187 171 168 164 156 157 174 184 187 177 196 207 217 235 238 261 258 274 275 265 264 268
49 221 199 266 257 293 280 231 176 184 242 304 175 162 156 170 187 194 199 196 193 191 195 191 191 181 196 194 184 164 161 166 180 188 186 175 184 195 209 210 215 219 230 248 254 257 263 255 259
176 268 192 278 293 253 311 266 201 236 259 12 136 160 178 188 194 201 196 207 190 211 204 190 190 190 182 172 163 165 182 188 188 178 182 179 196 201 194 217 216 222 222 231 250 247 240 249 259
203 241 278 281 294 245 289 326 135 326 239 168 159 185 183 192 198 182 192 208 199 215 205 193 190 188 180 176 177 189 194 201 168 180 191 192 196 199 200 210 216 225 221 224 231 239 265 260 255
289 319 335 1 358 337 196 346 239 291 298 252 219 194 189 201 194 210 210 211 204 216 185 198 186 179 193 187 185 183 188 187 184 194 185 192 190 208 191 202 215 232 211 242 264 277 258 281 280
30 53 42 297 337 343 93 288 303 348 289 307 288 197 225 218 216 220 221 216 213 213 188 178 194 196 191 194 188 191 192 186 198 194 185 189 198 195 194 211 221 217 222 245 213 252 283 278 284
9 29 348 326 16 68 53 283 53 3 18 356 338 247 211 222 239 236 223 225 222 190 176 185 192 198 196 192 188 186 184 198 196 186 183 189 198 199 204 210 218 222 209 175 268 267 246 269 281
322 351 321 277 278 19 350 271 349 9 8 11 357 352 241 230 242 272 294 346 7 17 12 356 347 337 287 191 159 175 172 204 177 197 193 192 198 200 203 200 197 189 164 111 167 205 211 235 238
156 198 266 269 239 230 270 271 13 331 19 10 2 3 14 335 334 4 20 51 41 34 34 5 339 324 310 0 26 347 245 284 291 248 219 201 176 202 210 224 212 99 139 127 153 148 220 260 206
187 266 278 282 294 151 263 173 150 24 24 11 12 21 18 23 31 35 34 53 56 43 12 11 2 299 215 255 304 263 191 190 153 146 151 177 211 223 208 188 160 158 136 165 175 166 196 207 185
199 191 248 216 347 272 92 335 10 31 53 9 17 16 30 43 59 52 56 54 53 45 30 19 22 19 21 3 46 64 69 50 40 6 51 27 56 230 199 169 167 163 162 173 192 201 190 196 93
273 210 237 244 110 229 110 263 286 327 358 28 10 19 17 21 30 55 60 56 51 54 54 43 37 35 29 16 50 52 15 15 40 44 358 334 14 36 6 84 157 170 184 183 205 199 223 137 190
224 262 206 236 178 113 300 102 261 358 333 14 17 19 18 26 32 40 48 51 50 56 66 77 66 46 42 27 29 54 64 19 11 55 335 350 355 11 309 98 191 184 216 257 323 322 271 189 137
237 96 43 53 94 114 199 139 273 262 259 318 13 26 24 32 34 50 56 66 58 52 50 45 59 62 57 41 22 32 16 35 20 7 357 3 14 7 23 40 32 331 335 336 339 331 330 310 259
92 67 327 337 0 224 126 108 234 196 193 244 291 45 43 29 56 63 70 73 76 76 74 69 62 49 74 68 58 37 7 357 12 358 347 348 4 19 13 22 7 350 330 326 316 325 338 331 235
179 158 163 227 209 252 309 232 244 193 138 129 161 221 66 73 87 87 84 84 75 70 74 80 85 89 90 95 89 67 25 330 351 25 8 335 334 10 7 28 12 2 337 323 315 287 266 260 256
184 176 157 102 20 60 247 300 277 179 206 198 199 193 196 170 152 133 95 52 43 44 30 82 97 88 32 47 61 111 111 51 4 3 1 342 328 349 3 29 10 347 353 4 5 355 331 295 271
133 150 87 14 185 252 273 259 234 210 212 207 202 197 205 205 178 99 71 85 77 71 58 41 48 59 44 39 23 97 339 96 136 26 353 344 328 349 342 348 357 353 349 355 7 3 359 334 301
129 120 55 115 135 190 233 250 221 204 186 198 209 195 198 210 201 150 169 173 135 153 160 161 156 135 169 118 54 16 359 9 355 37 334 317 306 334 335 322 329 331 342 346 357 358 1 348 304
142 169 147 132 221 192 160 267 310 204 187 185 203 195 198 199 202 218 230 244 197 221 235 210 191 164 161 122 100 103 59 17 11 21 7 347 333 342 333 321 319 311 305 320 338 340 350 1 347